CZ-6A DEB, 61288

Orbit data source: Space-Track

CZ-6A DEB, 61288 is space debris in LEO originally from a launch on Tue, 06 Aug 2024 UTC launched from the Taiyaun Space Center, China (TSC). Debris objects in space refer to the collection of defunct objects orbiting the Earth. Examples of debris include non-operational satellites, rocket bodies, and fragments generated from explosions, collisions, or faulty payload assembly.

Loading next visibility...
Identifier
61288, 2024-140SZ
Orbit
LEO
Country
Flag of CNCN / PRC
Related business
Manufacturer
SAST
Mission
Spacecraft
Bus & Motor
Unknown
Mass
Unknown
Launch date (UTC)
2024-08-06 (1 year ago)
Launch vehicle
Unknown
Launch site
Taiyaun Space Center, China (TSC)
Object type
Payload
Rocket body
Debris
Shape & HBR
Unknown shape, 0.1 m
Radar Cross Section
Small (<0.1 m²)

Expand to show TLE details & history
Last TLE update: 9 hours ago

TLE from 9 hours ago
0 CZ-6A DEB
1 61288U 24140SZ  25354.87653280  .00003098  00000-0  10622-2 0  9997
2 61288  89.0240 295.0384 0005891 278.9372  81.1160 14.35972609 68032
Epoch: 2025-12-20T21:02Z
TLE epoch observation values (Epoch: 2025-12-20T21:02:12.433Z)
Latitude
-0.00005°
Longitude
-110.21045°
Altitude
774.264 km
Speed
7.467 km/s
True Right ascension
19h 40m 09s
True Declination
0° 00' 00"
Sunlit
Object was in daylight at epoch
Visualization orbit readout
Latitude
Unknown
Longitude
Unknown
Altitude
Unknown
Speed
Unknown
Apparent Right ascension
Unknown
Apparent Declination
Unknown
Sunlit
N/A
Visualization observer readout
Local Sidereal Time
05:24:10
Azimuth
Unknown
Elevation
Unknown
Doppler factor
Unknown
Orbital elements
Apogee altitude
772.974 km
Perigee altitude
764.554 km
Semi-major axis
7,146.901 km
Eccentricity
0.00059
Inclination
89.024°
RAAN
295.0384°
Arg. of periapsis
278.9372°
True anomaly
81.1827°
Mean anomaly
81.116°
Eccentric anomaly
81.14935°
Mean motion
3.59225 °/min
Orbital period
100.22 mins
BSTAR
0.0010622
Loading maneuver chart data...
Computing Atmospheric mass density...
Loading historical data...
Loading historical data...
Loading historical data...
Loading historical data...
Loading historical data...
Loading historical data...
Loading historical data...

Documentation

Showing up to 5 results
|